DW4238 Weather Reports


Display with metric or nautical units.
time (UTC)temp
F
wind
direction
speed
MPH
gust
MPH
rain 1hr
in
rain 24hr
in
rain mn
in
humidity
%
barometer
mb
20211023181313 84 169 9.0 20.0 0.00 0.00 0.00 62 1012.0
20211023180308 83 169 10.0 14.0 0.00 0.00 0.00 65 1012.2
20211023175316 83 175 9.0 15.0 0.00 0.00 0.00 69 1012.3
20211023174312 83 179 10.0 17.0 0.00 0.00 0.00 67 1012.4
20211023173335 82 144 11.0 17.0 0.00 0.00 0.00 71 1012.4
20211023172319 82 184 9.0 14.0 0.00 0.00 0.00 70 1012.7
20211023171314 82 181 11.0 18.0 0.00 0.00 0.00 69 1012.9
20211023170322 81 202 10.0 14.0 0.00 0.00 0.00 75 1013.1
20211023165317 81 205 10.0 16.0 0.00 0.00 0.00 73 1013.1
20211023164320 81 191 13.0 17.0 0.00 0.00 0.00 74 1013.2
20211023163309 80 170 7.0 12.0 0.00 0.00 0.00 80 1013.5
20211023162324 80 209 8.0 11.0 0.00 0.00 0.00 83 1013.5
20211023161312 79 180 10.0 15.0 0.00 0.00 0.00 85 1013.6
20211023160315 78 186 8.0 12.0 0.00 0.00 0.00 95 1013.7
20211023155323 77 191 6.0 9.0 0.00 0.00 0.00 95 1013.7
20211023154319 77 167 4.0 8.0 0.00 0.00 0.00 95 1013.7
20211023153326 77 173 8.0 11.0 0.00 0.00 0.00 95 1013.7
20211023152321 77 176 5.0 10.0 0.00 0.00 0.00 97 1013.7
20211023151334 77 217 5.0 8.0 0.00 0.00 0.00 99 1013.7
20211023150321 77 199 6.0 12.0 0.00 0.00 0.00 100 1013.7
20211023145321 76 188 6.0 12.0 0.00 0.00 0.00 100 1013.5
20211023144309 76 186 5.0 11.0 0.00 0.00 0.00 100 1013.5
20211023143324 75 146 6.0 10.0 0.00 0.00 0.00 100 1013.5
20211023142321 75 171 4.0 11.0 0.00 0.00 0.00 100 1013.5
20211023141322 74 163 8.0 12.0 0.00 0.00 0.00 100 1013.4
20211023140310 74 171 10.0 15.0 0.00 0.00 0.00 100 1013.3
20211023135326 74 171 8.0 10.0 0.00 0.00 0.00 100 1013.3
20211023134314 74 183 5.0 9.0 0.00 0.00 0.00 100 1013.2
20211023133309 73 184 7.0 10.0 0.00 0.00 0.00 100 1013.1
20211023132325 73 176 5.0 9.0 0.00 0.00 0.00 100 1013.0
20211023131312 73 163 7.0 11.0 0.00 0.00 0.00 100 1012.8
20211023130315 73 178 8.0 13.0 0.00 0.00 0.00 100 1012.7
20211023125311 73 175 8.0 10.0 0.00 0.00 0.00 100 1012.7
20211023124327 73 170 6.0 9.0 0.00 0.00 0.00 100 1012.6
20211023123330 73 160 6.0 10.0 0.00 0.00 0.00 100 1012.5
20211023122326 73 158 5.0 9.0 0.00 0.00 0.00 100 1012.5
20211023121309 73 157 4.0 7.0 0.00 0.00 0.00 100 1012.4
20211023120316 73 146 4.0 7.0 0.00 0.00 0.00 100 1012.4
20211023115331 74 157 4.0 9.0 0.00 0.00 0.00 100 1012.4
20211023114320 74 152 5.0 8.0 0.00 0.00 0.00 100 1012.3
20211023113335 74 188 5.0 8.0 0.00 0.00 0.00 100 1012.2
20211023112323 74 185 7.0 11.0 0.00 0.00 0.00 100 1012.3
20211023111326 74 169 5.0 8.0 0.00 0.00 0.00 100 1012.3
20211023110314 74 190 5.0 8.0 0.00 0.00 0.00 100 1012.2
20211023105329 74 176 3.0 7.0 0.00 0.00 0.00 100 1012.2
20211023104325 74 169 5.0 9.0 0.00 0.00 0.00 100 1012.2
20211023103328 74 155 3.0 9.0 0.00 0.00 0.00 100 1012.1
20211023102317 74 164 4.0 7.0 0.00 0.00 0.00 100 1012.2
20211023101333 74 163 6.0 8.0 0.00 0.00 0.00 100 1012.2
20211023100320 74 159 4.0 8.0 0.00 0.00 0.00 100 1012.3
20211023095308 74 163 3.0 8.0 0.00 0.00 0.00 100 1012.4
20211023094311 74 171 5.0 8.0 0.00 0.00 0.00 100 1012.3
20211023093327 74 178 6.0 11.0 0.00 0.00 0.00 100 1012.3
20211023092315 74 167 6.0 10.0 0.00 0.00 0.00 100 1012.4
20211023091330 74 162 5.0 10.0 0.00 0.00 0.00 100 1012.5
20211023090318 74 178 5.0 8.0 0.00 0.00 0.00 100 1012.6
20211023085310 74 181 6.0 9.0 0.00 0.00 0.00 100 1012.7
20211023084317 74 165 5.0 11.0 0.00 0.00 0.00 100 1012.7
20211023083321 74 183 7.0 10.0 0.00 0.00 0.00 100 1012.8
20211023082316 74 169 7.0 11.0 0.00 0.00 0.00 100 1012.8
20211023081324 74 183 6.0 12.0 0.00 0.00 0.00 100 1012.9
20211023080313 74 168 7.0 11.0 0.00 0.00 0.00 100 1013.0
20211023075317 74 165 7.0 12.0 0.00 0.00 0.00 100 1013.1
20211023074325 74 169 5.0 13.0 0.00 0.00 0.00 100 1013.2
20211023073320 74 151 7.0 14.0 0.00 0.00 0.00 100 1013.3
20211023072336 73 171 8.0 12.0 0.00 0.00 0.00 100 1013.3
20211023071322 73 155 8.0 12.0 0.00 0.00 0.00 100 1013.4
20211023070325 73 153 9.0 13.0 0.00 0.00 0.00 100 1013.4
20211023065321 73 205 8.0 14.0 0.00 0.00 0.00 100 1013.4
20211023064316 73 160 7.0 10.0 0.00 0.00 0.00 100 1013.5
20211023063312 73 190 7.0 13.0 0.00 0.00 0.00 100 1013.6
20211023062327 73 215 7.0 12.0 0.00 0.00 0.00 100 1013.5
20211023061331 72 185 7.0 12.0 0.00 0.00 0.00 100 1013.6
20211023060319 72 164 6.0 12.0 0.00 0.00 0.00 100 1013.6
20211023055334 72 181 6.0 9.0 0.00 0.00 0.00 100 1013.7
20211023054311 72 158 6.0 9.0 0.00 0.00 0.00 100 1013.8
20211023053312 72 182 4.0 10.0 0.00 0.00 0.00 100 1013.9
20211023052327 72 166 5.0 9.0 0.00 0.00 0.00 100 1013.8
20211023051312 72 154 6.0 9.0 0.00 0.00 0.00 100 1013.9
20211023050313 72 175 4.0 8.0 0.00 0.00 0.00 100 1014.0
20211023045328 73 169 5.0 10.0 0.00 0.00 0.00 100 1014.1
20211023044317 73 182 7.0 11.0 0.00 0.00 0.00 99 1014.1
20211023043332 73 160 8.0 12.0 0.00 0.00 0.00 98 1014.2
20211023042320 73 170 6.0 11.0 0.00 0.00 0.00 97 1014.2
20211023041335 73 163 7.0 12.0 0.00 0.00 0.00 97 1014.3
20211023040323 73 158 6.0 8.0 0.00 0.00 0.00 96 1014.3
20211023035311 73 172 5.0 9.0 0.00 0.00 0.00 94 1014.4
20211023034310 72 173 6.0 10.0 0.00 0.00 0.00 90 1014.3
20211023033311 72 143 5.0 8.0 0.00 0.00 0.00 85 1014.3
20211023032322 72 163 5.0 8.0 0.00 0.00 0.00 84 1014.3
20211023031310 72 146 3.0 4.0 0.00 0.00 0.00 83 1014.1
20211023030325 72 138 2.0 4.0 0.00 0.00 0.00 82 1014.1
20211023025313 72 145 0.0 0.0 0.00 0.00 0.00 80 1014.1
20211023024329 73 136 0.0 3.0 0.00 0.00 0.00 80 1014.0
20211023023318 73 141 2.0 3.0 0.00 0.00 0.00 79 1014.1
20211023022312 73 144 2.0 4.0 0.00 0.00 0.00 79 1014.2
20211023021336 73 144 3.0 5.0 0.00 0.00 0.00 78 1014.2
20211023020324 74 145 3.0 4.0 0.00 0.00 0.00 76 1014.1
20211023015321 74 146 2.0 4.0 0.00 0.00 0.00 76 1014.1
20211023014310 75 147 3.0 5.0 0.00 0.00 0.00 74 1014.1
20211023013325 75 144 0.0 3.0 0.00 0.00 0.00 74 1014.1
20211023012313 75 145 0.0 0.0 0.00 0.00 0.00 72 1013.9
20211023011316 75 141 0.0 0.0 0.00 0.00 0.00 71 1013.9
20211023010324 76 140 0.0 0.0 0.00 0.00 0.00 71 1013.8
20211023005319 76 147 0.0 0.0 0.00 0.00 0.00 70 1013.7
20211023004327 77 151 0.0 3.0 0.00 0.00 0.00 69 1013.7
20211023003322 77 141 1.0 3.0 0.00 0.00 0.00 68 1013.7
20211023002325 77 134 1.0 3.0 0.00 0.00 0.00 68 1013.8
20211023001314 78 142 2.0 3.0 0.00 0.00 0.00 67 1013.7
20211023000317 78 131 0.0 0.0 0.00 0.00 0.00 66 1013.6
20211022235325 79 134 0.0 3.0 0.00 0.00 0.00 64 1013.5
20211022234320 80 138 1.0 3.0 0.00 0.00 0.00 63 1013.5
20211022233317 80 137 2.0 4.0 0.00 0.00 0.00 61 1013.5
20211022232309 81 144 4.0 5.0 0.00 0.00 0.00 60 1013.6
20211022231318 81 153 3.0 5.0 0.00 0.00 0.00 60 1013.6
20211022230313 82 130 5.0 8.0 0.00 0.00 0.00 59 1013.7
20211022225312 82 154 3.0 6.0 0.00 0.00 0.00 60 1013.7
20211022224315 82 138 4.0 9.0 0.00 0.00 0.00 60 1013.7
20211022223310 82 117 4.0 8.0 0.00 0.00 0.00 60 1013.7
20211022222334 83 138 3.0 10.0 0.00 0.00 0.00 58 1013.7
20211022221310 83 130 7.0 10.0 0.00 0.00 0.00 58 1013.7
20211022220325 83 153 7.0 11.0 0.00 0.00 0.00 58 1013.8
20211022215313 83 149 4.0 7.0 0.00 0.00 0.00 59 1013.9
20211022214315 83 153 7.0 11.0 0.00 0.00 0.00 58 1013.9
20211022213323 83 129 7.0 10.0 0.00 0.00 0.00 58 1013.9
20211022212326 84 142 4.0 9.0 0.00 0.00 0.00 59 1014.0
20211022211329 82 126 1.0 3.0 0.00 0.00 0.00 60 1014.1
20211022210318 82 120 3.0 7.0 0.00 0.00 0.00 61 1014.3
20211022205313 82 109 3.0 9.0 0.00 0.00 0.00 61 1014.3
20211022204321 84 140 6.0 12.0 0.00 0.00 0.00 57 1014.3
20211022203321 84 136 8.0 11.0 0.00 0.00 0.00 57 1014.3
20211022202309 84 142 5.0 11.0 0.00 0.00 0.00 55 1014.4
20211022201324 84 155 4.0 9.0 0.00 0.00 0.00 58 1014.4
20211022200332 84 163 6.0 14.0 0.00 0.00 0.00 56 1014.6
20211022195320 84 132 5.0 14.0 0.00 0.00 0.00 58 1014.9
20211022194321 84 81 2.0 6.0 0.00 0.00 0.00 57 1015.0
20211022193312 84 130 4.0 12.0 0.00 0.00 0.00 60 1015.2
20211022192308 82 126 3.0 9.0 0.00 0.00 0.00 58 1015.4
20211022191311 83 67 6.0 8.0 0.00 0.00 0.00 57 1015.6
20211022190326 82 209 3.0 10.0 0.00 0.00 0.00 61 1015.8
20211022185322 81 74 4.0 8.0 0.00 0.00 0.00 63 1015.9
20211022184317 81 121 3.0 8.0 0.00 0.00 0.00 64 1016.1
20211022183312 83 127 5.0 9.0 0.00 0.00 0.00 61 1016.3
20211022182326 82 66 3.0 10.0 0.00 0.00 0.00 63 1016.4